Terminal Aerodrome Forecast
Issued by NWS Houston/Galveston TX

Home | Current Version | Previous Version | Text Only | Print | Product List | Glossary On
Versions: 1 2 3 4 5 6 7 8 9 10 11 12 13 14 15 16 17 18 19 20 21 22 23 24 25 26 27 28 29 30 31 32 33 34 35 36 37 38 39 40 41 42 43 44 45 46 47 48 49 50
000
FTUS44 KHGX 310520
TAFHOU
TAF
KHOU 310520Z 3106/0106 12004KT P6SM FEW020 BKN250
     FM311000 19003KT P6SM FEW015 SCT030 BKN150
      TEMPO 3113/3117 SHRA BKN028 OVC050
     FM311700 16007KT P6SM VCSH BKN035 OVC080
      TEMPO 3117/3120 -SHRA BKN035
     FM010100 16006KT P6SM SCT100 BKN250=

USA.gov is the U.S. government's official web portal to all federal, state and local government web resources and services.